Location: �perlecques
(50.8057°N, 2.1521°E)
Time: 00:43:39
(UTC+00:00)

VELOX 1 - Pass Details

Date: 02 October 2021
Orbit: 627 x 642 km, 98.3° (Epoch: 21 October)

Event Time Altitude Azimuth Distance (km) Brightness Sun altitude
Exits shadow 02:04:23 20° 75° (ENE) 1,444 ? -34.0°
Maximum altitude 02:05:08 21° 60° (ENE) 1,406 ? -34.0°
Drops below altitude 10° 02:08:27 10° 11° (N) 2,017 ? -33.6°
Sets 02:11:03 0° 356° (N) 2,928 ? -33.3°
